User: anonymous   Login
Location: Unspecified
(0.0000°N, 0.0000°E)
Time: 08:04:35
(UTC+00:00)
Language:

AAUSAT 4 - Orbit

View from above orbital plane
View from above orbital plane
View from above satellite
View from above satellite

Ground track
Ground track

The orbit data is extracted from the following two-line orbital elements,

1 41460U 16025E   19345.79884525 +.00002129 +00000-0 +10810-3 0  9996
2 41460 098.0976 082.8858 0157248 117.2411 244.4933 15.07981953199207
Epoch (UTC): 11 December 2019 19:10:20
Eccentricity: 0.0157248
inclination: 98.0976°
perigee height: 433 km
apogee height: 651 km
right ascension of ascending node: 82.8858°
argument of perigee: 117.2411°
revolutions per day: 15.07981953
mean anomaly at epoch: 244.4933°
orbit number at epoch: 19920

The dashed part of the orbit path shows where the satellite is in the earth's shadow,  

DLR